Location: Indian Hills
(32.9760°N, 85.9450°W)
Time: 09:14:09
(UTC+00:00)

Cosmos 1603 - Pass Details

Date: 09 December 2019
Orbit: 830 x 860 km, 71.0° (Epoch: 26 January)

Event Time Altitude Azimuth Distance (km) Brightness Sun altitude
Exits shadow 11:24:09 - 338° (NNW) 2,824 6.1 -14.5°
Reaches altitude 10° 11:25:00 10° 338° (NNW) 2,495 5.8 -14.4°
Maximum altitude 11:30:45 84° 251° (WSW) 862 3.7 -13.2°
Drops below altitude 10° 11:36:26 10° 164° (SSE) 2,466 6.6 -12.1°
Sets 11:38:52 0° 163° (SSE) 3,394 7.4 -11.6°
